CW5210 Weather Reports


time (UTC)temp
C
wind
direction
speed
KPH
gust
KPH
rain 1hr
cm
rain 24hr
cm
rain mn
cm
humidity
%
barometer
mb
20260508213040 25 167 1.6 12.9 0.00 0.00 0.00 22 1015.7
20260508211538 24 0 4.8 14.5 0.00 0.00 0.00 21 1016.0
20260508210036 24 324 4.8 14.5 0.00 0.00 0.00 21 1016.1
20260508204538 23 332 6.4 16.1 0.00 0.00 0.00 22 1016.2
20260508203038 24 327 3.2 8.0 0.00 0.00 0.00 21 1016.4
20260508201536 25 224 0.0 9.7 0.00 0.00 0.00 24 1016.5
20260508200040 23 349 1.6 12.9 0.00 0.00 0.00 25 1016.6
20260508194537 23 305 1.6 11.3 0.00 0.00 0.00 22 1016.6
20260508193035 23 324 1.6 11.3 0.00 0.00 0.00 21 1016.7
20260508191534 23 311 1.6 12.9 0.00 0.00 0.00 25 1016.8
20260508190032 23 306 0.0 11.3 0.00 0.00 0.00 26 1016.8
20260508184533 23 0 0.0 8.0 0.00 0.00 0.00 26 1017.0
20260508183034 23 257 0.0 11.3 0.00 0.00 0.00 32 1017.1
20260508181544 22 350 1.6 11.3 0.00 0.00 0.00 26 1017.1
20260508180036 21 0 0.0 8.0 0.00 0.00 0.00 32 1017.2
20260508174532 21 207 0.0 11.3 0.00 0.00 0.00 36 1017.4
20260508173032 21 217 1.6 6.4 0.00 0.00 0.00 35 1017.4
20260508171531 20 196 0.0 4.8 0.00 0.00 0.00 40 1017.3
20260508170031 20 194 1.6 4.8 0.00 0.00 0.00 40 1017.4
20260508164539 20 0 0.0 4.8 0.00 0.00 0.00 39 1017.2
20260508163034 18 0 0.0 4.8 0.00 0.00 0.00 41 1017.1
20260508161532 17 65 0.0 3.2 0.00 0.00 0.00 43 1017.1
20260508160034 17 65 0.0 3.2 0.00 0.00 0.00 44 1017.0
20260508154558 17 0 0.0 3.2 0.00 0.00 0.00 44 1017.1
20260508153035 16 66 1.6 6.4 0.00 0.00 0.00 43 1016.9
20260508151538 16 68 0.0 4.8 0.00 0.00 0.00 48 1016.7
20260508150037 15 67 0.0 4.8 0.00 0.00 0.00 50 1016.7
20260508144533 15 0 0.0 1.6 0.00 0.00 0.00 51 1016.5
20260508143035 13 0 0.0 3.2 0.00 0.00 0.00 52 1016.4
20260508141536 12 0 0.0 1.6 0.00 0.00 0.00 59 1016.3
20260508140038 10 0 0.0 1.6 0.00 0.00 0.00 67 1016.3
20260508134548 9 0 0.0 0.0 0.00 0.00 0.00 69 1016.2
20260508133047 8 0 0.0 0.0 0.00 0.00 0.00 70 1016.0
20260508131534 7 0 0.0 0.0 0.00 0.00 0.00 68 1015.8
20260508130037 7 0 0.0 0.0 0.00 0.00 0.00 67 1015.6
20260508124537 7 0 0.0 0.0 0.00 0.00 0.00 67 1015.4
20260508123045 7 0 0.0 3.2 0.00 0.00 0.00 67 1015.3
20260508121534 7 0 0.0 0.0 0.00 0.00 0.00 65 1015.2
20260508120038 8 0 0.0 0.0 0.00 0.00 0.00 65 1014.9
20260508114536 8 0 0.0 1.6 0.00 0.00 0.00 65 1014.9
20260508113037 8 0 0.0 4.8 0.00 0.00 0.00 65 1014.8
20260508111538 8 0 0.0 1.6 0.00 0.00 0.00 65 1014.8
20260508110033 8 0 0.0 3.2 0.00 0.00 0.00 65 1014.8
20260508104532 8 0 0.0 1.6 0.00 0.00 0.00 66 1014.7
20260508103033 8 0 0.0 1.6 0.00 0.00 0.00 65 1014.8
20260508101536 8 0 0.0 3.2 0.00 0.00 0.00 65 1014.7
20260508100032 8 0 0.0 0.0 0.00 0.00 0.00 64 1014.7
20260508094538 8 0 0.0 1.6 0.00 0.00 0.00 64 1014.8
20260508093032 9 0 0.0 0.0 0.00 0.00 0.00 64 1014.6
20260508091532 9 0 0.0 4.8 0.00 0.00 0.00 64 1014.5
20260508090045 9 66 0.0 3.2 0.00 0.00 0.00 63 1014.5
20260508084541 9 0 0.0 0.0 0.00 0.00 0.00 63 1014.4
20260508083035 10 0 0.0 0.0 0.00 0.00 0.00 62 1014.5
20260508081545 10 0 0.0 1.6 0.00 0.00 0.00 62 1014.4
20260508080036 10 0 0.0 0.0 0.00 0.00 0.00 61 1014.5
20260508074532 10 66 0.0 1.6 0.00 0.00 0.00 60 1014.6
20260508073035 10 0 0.0 0.0 0.00 0.00 0.00 58 1014.5
20260508071536 11 0 0.0 0.0 0.00 0.00 0.00 57 1014.5
20260508070035 11 0 0.0 0.0 0.00 0.00 0.00 55 1014.4
20260508064536 11 0 0.0 1.6 0.00 0.00 0.00 55 1014.3
20260508063037 12 0 0.0 0.0 0.00 0.00 0.00 54 1014.2
20260508061537 12 0 0.0 0.0 0.00 0.00 0.00 53 1014.2
20260508060033 12 0 0.0 1.6 0.00 0.00 0.00 52 1014.0
20260508054537 13 0 0.0 1.6 0.00 0.00 0.00 50 1014.0
20260508053034 14 0 0.0 0.0 0.00 0.00 0.00 48 1014.0
20260508051540 15 0 0.0 0.0 0.00 0.00 0.00 41 1013.7
20260508050033 16 0 0.0 0.0 0.00 0.00 0.00 37 1013.7
20260508044532 16 0 0.0 0.0 0.00 0.00 0.00 36 1013.5
20260508043035 16 0 0.0 9.7 0.00 0.00 0.00 35 1013.7
20260508041534 16 90 1.6 6.4 0.00 0.00 0.00 36 1013.6
20260508040045 16 89 3.2 9.7 0.00 0.00 0.00 37 1013.5
20260508034545 17 77 1.6 6.4 0.00 0.00 0.00 37 1013.5
20260508033037 17 0 0.0 4.8 0.00 0.00 0.00 37 1013.4
20260508031535 18 335 0.0 3.2 0.00 0.00 0.00 37 1013.4
20260508030032 19 0 0.0 1.6 0.00 0.00 0.00 33 1013.2
20260508024558 20 0 0.0 0.0 0.00 0.00 0.00 30 1013.1
20260508023033 21 0 0.0 0.0 0.00 0.00 0.00 29 1013.2
20260508021534 22 0 0.0 0.0 0.00 0.00 0.00 28 1013.0
20260508020038 22 0 0.0 1.6 0.00 0.00 0.00 26 1012.9
20260508014536 22 0 0.0 4.8 0.00 0.00 0.00 24 1013.0
20260508013037 23 0 0.0 1.6 0.00 0.00 0.00 24 1013.1
20260508011536 23 336 0.0 4.8 0.00 0.00 0.00 24 1013.2
20260508010042 23 0 0.0 1.6 0.00 0.00 0.00 25 1013.2
20260508004544 23 0 0.0 3.2 0.00 0.00 0.00 24 1013.2
20260508003030 23 0 0.0 4.8 0.00 0.00 0.00 26 1013.1
20260508001541 23 0 0.0 9.7 0.00 0.00 0.00 23 1013.4
20260508000030 23 50 1.6 8.0 0.00 0.00 0.00 23 1013.5
20260507234535 23 16 1.6 8.0 0.00 0.00 0.00 24 1013.7
20260507233034 23 216 0.0 6.4 0.00 0.00 0.00 25 1013.8
20260507231535 24 0 1.6 6.4 0.00 0.00 0.00 24 1014.0
20260507230032 23 0 0.0 4.8 0.00 0.00 0.00 26 1014.2
20260507224530 23 344 1.6 6.4 0.00 0.00 0.00 24 1014.4
20260507223035 22 320 0.0 6.4 0.00 0.00 0.00 26 1014.7
20260507221539 22 352 1.6 8.0 0.00 0.00 0.00 26 1014.9
20260507220033 23 0 1.6 9.7 0.00 0.00 0.00 26 1015.1
20260507214537 23 233 0.0 9.7 0.00 0.00 0.00 25 1015.1